Home > Weather > Prince George > Past weeks

Flag for Canada Weather for the Past 2 Weeks in Prince George, British Columbia, Canada

Now
34 °F

Light rain. Fog.


Feels Like: 30 °F
Forecast: 34 / 41 °F
Wind: 5 mph from Southwest

Location: Prince George

Current Time: Feb 14, 2016 at 5:34:00 AM

Latest Report: Feb 14, 2016 at 5:00 AM


Visibility: 2 mi

Pressure: 29.86 "Hg (27.80 "Hg at 573m altitude)

Humidity: 100%

Dew point: 34 °F

Location of Prince GeorgeLocation

Historic Weather in Prince George — Graph

°F

Prince George Temperature Yesterday

Maximum temperature yesterday: 37 °F (at 2:00 PM)
Minimum temperature yesterday: 32 °F (at 8:00 AM)
Average temperature yesterday: 34 °F

High & Low Weather Summary for the Past Weeks

 TemperatureHumidityPressure
High45 °F (Feb 5, 4:00 PM)100% (Jan 30, 5:00 AM)30.54 "Hg (Jan 30, 5:00 AM)
Low7 °F (Feb 3, 6:01 AM)45% (Feb 6, 3:00 PM)29.48 "Hg (Feb 5, 7:00 PM)
Average31 °F89%30.08 "Hg
* Reported Jan 30 4:00 AM — Feb 14 4:00 AM, Prince George, Weather by CustomWeather, © 2016

Note: Actual official high and low records may vary slightly from our data, if they occured in-between our weather recording intervals... More about our weather records

Advertising

Prince George Weather History for the Previous 24 Hours

 ConditionsComfort  
Time TempWeatherWind HumidityBarometerVisibility
4:00 AM
Sun, Feb 14
34 °FLight rain. Mostly cloudy.6 mph100%29.83 "Hg9 mi
3:04 AM36 °FLight rain. Mostly cloudy.7 mph93%29.81 "Hg9 mi
2:00 AM36 °FLight rain. Overcast.12 mph93%29.80 "Hg9 mi
1:00 AM36 °FLight rain. Overcast.13 mph93%29.78 "Hg9 mi
12:00 AM36 °FOvercast.10 mph93%29.76 "Hg9 mi
11:00 PM
Sat, Feb 13
36 °FMostly cloudy.10 mph93%29.75 "Hg9 mi
10:00 PM34 °FMostly cloudy.3 mph100%29.75 "Hg9 mi
9:59 PM34 °FMostly cloudy.3 mph100%29.75 "Hg9 mi
9:00 PM34 °FLight rain. Mostly cloudy.3 mph93%29.77 "Hg9 mi
8:00 PM34 °FLight rain. Mostly cloudy.5 mph100%29.79 "Hg9 mi
7:45 PM34 °FLight rain. Mostly cloudy.5 mph100%29.80 "Hg9 mi
7:00 PM36 °FLight rain. Mostly cloudy.13 mph93%29.80 "Hg9 mi
6:00 PM37 °FLight rain. Overcast.14 mph87%29.80 "Hg9 mi
5:03 PM36 °FOvercast.2 mph100%29.81 "Hg7 mi
4:53 PM36 °FFog.3 mph100%29.81 "Hg5 mi
4:00 PM36 °FMore clouds than sun.6 mph100%29.85 "Hg9 mi
3:00 PM36 °FBroken clouds.3 mph100%29.89 "Hg9 mi
2:00 PM37 °FPartly sunny.3 mph93%29.91 "Hg9 mi
1:00 PM36 °FBroken clouds.6 mph93%29.93 "Hg9 mi
12:00 PM36 °FMostly cloudy.6 mph93%29.95 "Hg9 mi
11:00 AM34 °FMostly cloudy.7 mph100%29.97 "Hg9 mi
10:48 AM34 °FMostly cloudy.8 mph100%29.97 "Hg9 mi
10:00 AM34 °FMostly cloudy.9 mph100%29.99 "Hg9 mi
9:00 AM34 °FFog.12 mph100%29.99 "Hg1 mi
8:55 AM34 °FFog.9 mph100%29.99 "Hg1 mi
8:00 AM32 °FFog.13 mph100%29.99 "Hg1 mi
7:53 AM34 °FFog.12 mph100%30.00 "Hg1 mi
7:00 AM34 °FFog.12 mph100%29.99 "Hg1 mi
6:00 AM34 °FFog.12 mph100%29.99 "Hg2 mi
5:59 AM34 °FFog.10 mph100%29.99 "Hg2 mi
5:00 AM34 °FLow clouds.14 mph100%29.98 "Hg9 mi
Weather by CustomWeather, © 2016

See weather overviewHow to use our weather pages